EIN142 EGPH-EIKN

Flight info

Callsign EIN142
Flight time N/A
Altitude 34000
Route GOSAM DCT TRN DCT NIMAT DCT DUB DCT OLAPO DCT CON
Aircraft A320/M-SDE3FGHIRWY/LB1

Departure

Time 2026-05-03 20:28
Airport Edinburgh Airport (EGPH)

Arrival

Time N/A
Airport Ireland West Airport Knock (EIKN)
Time Latitude Longitude Altitude Speed Heading
2026-05-03 20:15 55.94882 -3.36549 116 ft 0 kts 148°
2026-05-03 20:18 55.94895 -3.36564 113 ft 4 kts 153°
2026-05-03 20:19 55.94920 -3.36581 114 ft 4 kts 170°
2026-05-03 20:19 55.94945 -3.36581 113 ft 4 kts 206°
2026-05-03 20:19 55.94957 -3.36566 112 ft 0 kts 238°
2026-05-03 20:21 55.94954 -3.36573 112 ft 5 kts 238°
2026-05-03 20:21 55.94921 -3.36671 112 ft 9 kts 238°
2026-05-03 20:22 55.94895 -3.36760 116 ft 7 kts 257°
2026-05-03 20:22 55.94912 -3.36822 116 ft 5 kts 312°
2026-05-03 20:22 55.94925 -3.36887 114 ft 7 kts 266°
2026-05-03 20:22 55.94881 -3.37031 116 ft 14 kts 238°
2026-05-03 20:23 55.94831 -3.37176 113 ft 13 kts 238°
2026-05-03 20:23 55.94786 -3.37308 113 ft 12 kts 239°
2026-05-03 20:23 55.94746 -3.37427 112 ft 11 kts 239°
2026-05-03 20:23 55.94710 -3.37535 113 ft 10 kts 239°
2026-05-03 20:24 55.94667 -3.37660 115 ft 12 kts 239°
2026-05-03 20:24 55.94627 -3.37779 115 ft 11 kts 238°
2026-05-03 20:24 55.94590 -3.37887 116 ft 10 kts 238°
2026-05-03 20:24 55.94556 -3.37986 112 ft 9 kts 239°
2026-05-03 20:25 55.94525 -3.38078 115 ft 9 kts 239°
2026-05-03 20:25 55.94496 -3.38167 115 ft 8 kts 239°
2026-05-03 20:25 55.94454 -3.38290 114 ft 13 kts 238°
2026-05-03 20:25 55.94407 -3.38425 116 ft 12 kts 238°
2026-05-03 20:26 55.94365 -3.38547 115 ft 11 kts 239°
2026-05-03 20:26 55.94329 -3.38657 115 ft 10 kts 239°
2026-05-03 20:26 55.94296 -3.38756 112 ft 9 kts 239°
2026-05-03 20:26 55.94286 -3.38848 116 ft 7 kts 297°
2026-05-03 20:27 55.94328 -3.38911 116 ft 8 kts 329°
2026-05-03 20:27 55.94377 -3.38962 114 ft 9 kts 335°
2026-05-03 20:27 55.94427 -3.38929 114 ft 8 kts 56°
2026-05-03 20:27 55.94543 -3.38595 113 ft 76 kts 58°
2026-05-03 20:28 55.94971 -3.37331 175 ft 151 kts 59°
2026-05-03 20:28 55.95548 -3.35580 830 ft 174 kts 60°
2026-05-03 20:28 55.96279 -3.33761 1632 ft 190 kts 44°
2026-05-03 20:28 55.97011 -3.32806 1927 ft 206 kts 24°
2026-05-03 20:29 55.98496 -3.32471 2415 ft 231 kts 347°
2026-05-03 20:29 55.99907 -3.34020 3025 ft 252 kts 309°
2026-05-03 20:29 56.00770 -3.36782 4022 ft 258 kts 293°
2026-05-03 20:29 56.01334 -3.39848 5062 ft 262 kts 287°
2026-05-03 20:30 56.01653 -3.43092 5846 ft 272 kts 273°
2026-05-03 20:30 56.01458 -3.46467 6005 ft 275 kts 258°
2026-05-03 20:30 56.00893 -3.49745 6828 ft 277 kts 255°
2026-05-03 20:30 56.00373 -3.53059 7859 ft 277 kts 257°
2026-05-03 20:31 55.99899 -3.56405 8860 ft 279 kts 257°
2026-05-03 20:31 55.99437 -3.59784 9853 ft 281 kts 257°
2026-05-03 20:31 55.98965 -3.63243 10439 ft 297 kts 257°
2026-05-03 20:31 55.98450 -3.66969 10757 ft 321 kts 257°
2026-05-03 20:32 55.97889 -3.70974 11078 ft 342 kts 257°
2026-05-03 20:32 55.97297 -3.75148 11713 ft 350 kts 257°
2026-05-03 20:32 55.96686 -3.79389 12478 ft 355 kts 256°
2026-05-03 20:32 55.96064 -3.83674 13244 ft 359 kts 256°
2026-05-03 20:33 55.95428 -3.88019 13989 ft 364 kts 256°
2026-05-03 20:33 55.94784 -3.92412 14673 ft 367 kts 256°
2026-05-03 20:33 55.94118 -3.96832 15357 ft 371 kts 253°
2026-05-03 20:33 55.93020 -4.01026 16024 ft 377 kts 238°
2026-05-03 20:34 55.91327 -4.04619 16694 ft 383 kts 223°
2026-05-03 20:34 55.89202 -4.07441 17365 ft 387 kts 216°
2026-05-03 20:34 55.86972 -4.10167 18054 ft 391 kts 216°
2026-05-03 20:34 55.84722 -4.12914 18668 ft 394 kts 216°
2026-05-03 20:35 55.82447 -4.15688 19235 ft 398 kts 216°
2026-05-03 20:35 55.80150 -4.18488 19803 ft 402 kts 216°
2026-05-03 20:35 55.77835 -4.21314 20355 ft 406 kts 216°
2026-05-03 20:35 55.75503 -4.24193 20893 ft 410 kts 216°
2026-05-03 20:36 55.73156 -4.27115 21416 ft 414 kts 216°
2026-05-03 20:36 55.70792 -4.30062 21922 ft 418 kts 216°
2026-05-03 20:36 55.68404 -4.33039 22440 ft 421 kts 216°
2026-05-03 20:36 55.65997 -4.36030 22946 ft 424 kts 216°
2026-05-03 20:37 55.63568 -4.39032 23421 ft 427 kts 216°
2026-05-03 20:37 55.61118 -4.42059 23828 ft 431 kts 216°
2026-05-03 20:37 55.58653 -4.45098 24189 ft 434 kts 216°
2026-05-03 20:37 55.56157 -4.48164 24491 ft 439 kts 216°
2026-05-03 20:38 55.53630 -4.51260 24815 ft 444 kts 216°
2026-05-03 20:38 55.51083 -4.54376 25153 ft 448 kts 216°
2026-05-03 20:38 55.48543 -4.57480 25485 ft 451 kts 216°
2026-05-03 20:38 55.45952 -4.60638 25815 ft 455 kts 216°
2026-05-03 20:39 55.43341 -4.63816 26142 ft 458 kts 216°
2026-05-03 20:39 55.40709 -4.67019 26457 ft 462 kts 216°
2026-05-03 20:39 55.38052 -4.70246 26741 ft 466 kts 216°
2026-05-03 20:39 55.35377 -4.73490 27040 ft 469 kts 216°
2026-05-03 20:40 55.32670 -4.76741 27329 ft 473 kts 213°
2026-05-03 20:40 55.29779 -4.79529 27612 ft 477 kts 205°
2026-05-03 20:40 55.26717 -4.81804 27881 ft 480 kts 203°
2026-05-03 20:40 55.23623 -4.84066 28149 ft 483 kts 203°
2026-05-03 20:41 55.20514 -4.86334 28415 ft 486 kts 203°
2026-05-03 20:41 55.17377 -4.88623 28660 ft 489 kts 203°
2026-05-03 20:41 55.14231 -4.90920 28933 ft 491 kts 202°
2026-05-03 20:41 55.11071 -4.93226 29172 ft 494 kts 202°
2026-05-03 20:42 55.07888 -4.95547 29324 ft 498 kts 202°
2026-05-03 20:42 55.04682 -4.97880 29534 ft 500 kts 202°
2026-05-03 20:42 55.01467 -5.00218 29822 ft 501 kts 202°
2026-05-03 20:42 54.98244 -5.02559 30106 ft 502 kts 202°
2026-05-03 20:43 54.95025 -5.04891 30351 ft 502 kts 202°
2026-05-03 20:43 54.91804 -5.07215 30640 ft 501 kts 202°
2026-05-03 20:43 54.88590 -5.09525 30983 ft 499 kts 202°
2026-05-03 20:43 54.85395 -5.11818 31327 ft 496 kts 202°
2026-05-03 20:44 54.82213 -5.14102 31656 ft 494 kts 202°
2026-05-03 20:44 54.79039 -5.16378 31976 ft 492 kts 202°
2026-05-03 20:44 54.75923 -5.18606 32300 ft 490 kts 202°
2026-05-03 20:44 54.72772 -5.20858 32635 ft 489 kts 202°
2026-05-03 20:45 54.69641 -5.23096 32971 ft 487 kts 202°
2026-05-03 20:45 54.66511 -5.25328 33290 ft 485 kts 202°
2026-05-03 20:45 54.63392 -5.27548 33636 ft 483 kts 202°
2026-05-03 20:45 54.60295 -5.29745 33956 ft 480 kts 202°
2026-05-03 20:46 54.57220 -5.31923 34022 ft 478 kts 202°
2026-05-03 20:46 54.51083 -5.36261 34007 ft 476 kts 202°
2026-05-03 20:47 54.44934 -5.40596 34022 ft 480 kts 202°
2026-05-03 20:47 54.38744 -5.44937 34014 ft 481 kts 202°
2026-05-03 20:48 54.32570 -5.49245 34012 ft 477 kts 202°
2026-05-03 20:48 54.26430 -5.53514 34015 ft 476 kts 202°
2026-05-03 20:49 54.20298 -5.57790 34019 ft 476 kts 202°
2026-05-03 20:49 54.14166 -5.62050 34020 ft 476 kts 201°
2026-05-03 20:50 54.08033 -5.66280 34029 ft 475 kts 202°
2026-05-03 20:50 54.01955 -5.70459 34037 ft 474 kts 202°
2026-05-03 20:51 53.95963 -5.75060 34028 ft 472 kts 211°
2026-05-03 20:51 53.90600 -5.81477 34027 ft 472 kts 216°
2026-05-03 20:52 53.85284 -5.87991 34020 ft 471 kts 216°